Regional Weather Roundup
Issued by NWS Memphis, TN

Home | Current Version | Previous Version | Text Only | Print | Product List | Glossary On
Versions: 1 2 3 4 5 6 7 8 9 10 11 12 13 14 15 16 17 18 19 20 21 22 23 24 25 26 27 28 29 30 31 32 33 34 35 36 37 38 39 40 41 42 43 44 45 46 47 48 49 50
220
ASUS44 KMEG 140100
RWRMEG
MEMPHIS CWA HOURLY WEATHER ROUNDUP
NATIONAL WEATHER SERVICE MEMPHIS TN
700 PM CST SAT FEB 13 2016

...WEST TENNESSEE...

CITY           SKY/WX    TMP DP  RH WIND       PRES   REMARKS
MEMPHIS INTL   CLOUDY    33   8  35 NE12      30.43F WCI  24
NWS MEMPHIS      N/A     31 N/A N/A MISG        N/A
JACKSON        CLOUDY    31   7  36 NE7       30.46F WCI  24
LEXINGTON      CLOUDY    30   1  29 NE3       30.46R
DYERSBURG      MOCLDY    28   7  40 E9        30.49F WCI  20
PARIS          CLOUDY    25   5  42 NE9       30.47F WCI  15


...EASTERN ARKANSAS...

CITY           SKY/WX    TMP DP  RH WIND       PRES   REMARKS
JONESBORO      PTCLDY    27  10  49 E12       30.46F WCI  17
WEST MEMPHIS   CLOUDY    31  10  41 NE10      30.44S HAZE    WCI  22
BATESVILLE     CLOUDY    30   9  40 E9        30.44S WCI  22
WALNUT RIDGE   PTCLDY    27   3  36 E8        30.47F WCI  18
BLYTHEVILLE    CLOUDY    30   7  37 E14       30.47F WCI  19
SEARCY         CLOUDY    30  12  47 NE9       30.45S WCI  22
STUTTGART      CLEAR     36  12  38 NE10      30.42S WCI  28
PINE BLUFF     CLEAR     36  14  40 NE8       30.41R WCI  30
MONTICELLO     PTCLDY    38  16  40 E3        30.39S


...NORTH MISSISSIPPI...

CITY           SKY/WX    TMP DP  RH WIND       PRES   REMARKS
TUPELO         CLEAR     32  10  40 N8        30.44F WCI  25
OLIVE BRANCH   PTCLDY    32  12  43 NE8       30.42F WCI  25
TUNICA         CLEAR     32  14  47 NE8       30.44S WCI  25
GREENWOOD      PTCLDY    38  16  40 NE6       30.40S WCI  33


...SOUTHEAST MISSOURI...

CITY           SKY/WX    TMP DP  RH WIND       PRES   REMARKS
WEST PLAINS    PTCLDY    27  -2  28 E10       30.36F WCI  17
POPLAR BLUFF   CLOUDY    27   6  41 E8        30.47F WCI  19
CAPE GIRARDEAU CLOUDY    26   2  35 E9        30.48F WCI  17


...NORTHWEST ALABAMA...

CITY           SKY/WX    TMP DP  RH WIND       PRES   REMARKS
MUSCLE SHOALS  CLOUDY    35   5  28 E5        30.45S WCI  31


...MIDDLE TENNESSEE...

CITY           SKY/WX    TMP DP  RH WIND       PRES   REMARKS
NASHVILLE      CLOUDY    27   2  34 N7        30.50R WCI  19
CLARKSVILLE    CLOUDY    26   4  38 NE9       30.50F WCI  17


...WESTERN KENTUCKY...

CITY           SKY/WX    TMP DP  RH WIND       PRES   REMARKS
PADUCAH        CLOUDY    26   5  40 NE7       30.50F WCI  18
FORT CAMPBELL  CLOUDY    25   4  40 N9        30.49F WCI  16


...CENTRAL ARKANSAS...

CITY           SKY/WX    TMP DP  RH WIND       PRES   REMARKS
LITTLE ROCK    PTCLDY    34  12  40 E8        30.41S WCI  27


SKY/WX REPORTED AS FAIR MEANS FEW OR NO CLOUDS BELOW
12 THOUSAND FEET.





USA.gov is the U.S. government's official web portal to all federal, state and local government web resources and services.